User: anonymous   Login
Location: Unspecified
(0.0000°N, 0.0000°E)
Time: 09:44:01
(UTC+00:00)
Language:

Kosmos-2218 - Orbit

View from above orbital plane
View from above orbital plane
View from above satellite
View from above satellite

Ground track
Ground track

The orbit data is extracted from the following two-line orbital elements,

1 22207U 92073A   18018.63901560 +.00000036 +00000-0 +23023-4 0  9995
2 22207 082.9201 249.7498 0031386 255.0243 132.8818 13.72865745263473
Epoch (UTC): 18 January 2018 15:20:10
Eccentricity: 0.0031386
inclination: 82.9201°
perigee height: 966 km
apogee height: 1012 km
right ascension of ascending node: 249.7498°
argument of perigee: 255.0243°
revolutions per day: 13.72865745
mean anomaly at epoch: 132.8818°
orbit number at epoch: 26347

The dashed part of the orbit path shows where the satellite is in the earth's shadow,  

DLR